Blytheville, AR

11:20 AM CST on December 03, 2016 (GMT -0600)
Blytheville Municipal

Weather History for KHKA - September, 2013

Change the Weather History Date:

Saturday, September 28, 2013

  Actual Average Record
Temperature  
Mean Temperature 73 °F -  
Max Temperature 82 °F 78 °F 98 °F (1953)
Min Temperature 64 °F 56 °F 36 °F (1942)
Cooling Degree Days 8    
Growing Degree Days 23 (Base 50)    
Moisture  
Dew Point 60 °F    
Average Humidity 66    
Maximum Humidity 87    
Minimum Humidity 42    
Precipitation  
Precipitation 0.00 in - - ()
Sea Level Pressure  
Sea Level Pressure 30.06 in    
Wind  
Wind Speed 8 mph (SSE)    
Max Wind Speed 15 mph    
Max Gust Speed 21 mph    
Visibility 10 miles    
Events      
Averages and records for this station are not official NWS values.
T = Trace of Precipitation, MM = Missing Value Source: NWS Daily Summary

Daily Weather History Graph

Daily Weather History Graph

Search for Another Location

Airport or City:

Trip Planner

Search our weather history database for the weather conditions in past years. The results will help you decide how hot, cold, wet, or windy it might be!

Date:

Astronomy

Sep. 28, 2013 Rise Set
Actual Time 6:52 AM CDT 6:46 PM CDT
Civil Twilight 6:26 AM CDT 7:12 PM CDT
Nautical Twilight 5:56 AM CDT 7:42 PM CDT
Astronomical Twilight 5:26 AM CDT 8:12 PM CDT
Moon 12:49 AM CDT (9/28) 2:56 PM CDT (9/28)
Length of Visible Light 12h 45m
Length of Day
11h 54m
Waning Crescent, 36% of the Moon is Illuminated
Sep 28
Waning Crescent
Oct 4
New
Oct 11
First Quarter
Oct 18
Full
Oct 26
Last Quarter

Hourly Weather History & Observations

Time (CDT) Temp. Heat Index Dew Point Humidity Pressure Visibility Wind Dir Wind Speed Gust Speed Precip Events Conditions
12:53 AM 69.1 °F - 61.0 °F 75% 30.04 in 10.0 mi South 6.9 mph - N/A   Clear
1:53 AM 66.9 °F - 61.0 °F 81% 30.04 in 10.0 mi South 6.9 mph - N/A   Clear
2:53 AM 66.0 °F - 61.0 °F 84% 30.04 in 10.0 mi South 5.8 mph - N/A   Clear
3:53 AM 64.0 °F - 60.1 °F 87% 30.04 in 10.0 mi SSE 5.8 mph - N/A   Clear
4:53 AM 64.0 °F - 60.1 °F 87% 30.05 in 10.0 mi South 5.8 mph - N/A   Clear
5:53 AM 64.9 °F - 60.1 °F 84% 30.07 in 10.0 mi SSE 6.9 mph - N/A   Clear
6:53 AM 64.0 °F - 59.0 °F 84% 30.09 in 10.0 mi South 6.9 mph - N/A   Clear
7:53 AM 66.0 °F - 60.1 °F 81% 30.10 in 10.0 mi SSE 8.1 mph - N/A   Clear
8:53 AM 70.0 °F - 60.1 °F 71% 30.11 in 10.0 mi South 9.2 mph - N/A   Clear
9:53 AM 73.9 °F - 59.0 °F 59% 30.12 in 10.0 mi South 11.5 mph 16.1 mph N/A   Clear
10:53 AM 78.1 °F - 57.9 °F 50% 30.12 in 10.0 mi South 12.7 mph - N/A   Clear
11:53 AM 80.1 °F 80.4 °F 57.0 °F 45% 30.11 in 10.0 mi South 15.0 mph 20.7 mph N/A   Clear
12:53 PM 81.0 °F 81.0 °F 57.0 °F 44% 30.09 in 10.0 mi South 10.4 mph - N/A   Clear
1:53 PM 81.0 °F 81.0 °F 57.0 °F 44% 30.06 in 10.0 mi South 11.5 mph 19.6 mph N/A   Clear
2:53 PM 82.0 °F 81.7 °F 57.0 °F 42% 30.04 in 10.0 mi South 9.2 mph - N/A   Clear
3:53 PM 82.0 °F 82.0 °F 57.9 °F 44% 30.02 in 10.0 mi South 10.4 mph - N/A   Clear
4:53 PM 81.0 °F 81.3 °F 59.0 °F 47% 30.01 in 10.0 mi South 9.2 mph - N/A   Clear
5:53 PM 79.0 °F - 61.0 °F 54% 30.01 in 10.0 mi South 5.8 mph - N/A   Clear
6:53 PM 73.9 °F - 61.0 °F 64% 30.01 in 10.0 mi SSE 4.6 mph - N/A   Clear
7:53 PM 72.0 °F - 62.1 °F 71% 30.03 in 10.0 mi SSE 5.8 mph - N/A   Clear
8:53 PM 71.1 °F - 61.0 °F 70% 30.03 in 10.0 mi SSE 5.8 mph - N/A   Clear
9:53 PM 70.0 °F - 60.1 °F 71% 30.04 in 10.0 mi SSE 5.8 mph - N/A   Clear
10:53 PM 70.0 °F - 60.1 °F 71% 30.05 in 10.0 mi South 6.9 mph - N/A   Overcast
11:53 PM 70.0 °F - 59.0 °F 68% 30.04 in 10.0 mi South 8.1 mph - N/A   Overcast